Regional Weather Roundup
Issued by NWS Huntsville, AL

Home | Current Version | Previous Version | Text Only | Print | Product List | Glossary On
Versions: 1 2 3 4 5 6 7 8 9 10 11 12 13 14 15 16 17 18 19 20 21 22 23 24 25 26 27
000
ASUS44 KHUN 230910
RWRHUN

WEATHER ROUNDUP FOR THE TENNESSEE VALLEY
NATIONAL WEATHER SERVICE HUNTSVILLE AL
300 AM CST FRI FEB 23 2018

ALZ001>004-231000-
NORTHWEST ALABAMA

CITY           SKY/WX    TMP DP  RH WIND       PRES   REMARKS
SHOALS AIRPORT FAIR      67  60  78 S8        30.29S
$$

ALZ005>007-016-231000-
NORTH CENTRAL ALABAMA

CITY           SKY/WX    TMP DP  RH WIND       PRES   REMARKS
DECATUR AP     FAIR      63  59  87 S10       30.31S
HUNTSVILLE AP  FAIR      65  61  87 S7        30.31S
MERIDIANVILLE  FAIR      60  58  91 SE3       30.31F
REDSTONE ARSN  FAIR      62  59  90 S5        30.30S
VINEMONT AP    FAIR      64  58  83 S8        30.35S
$$

ALZ008>010-231000-
NORTHEAST ALABAMA

CITY           SKY/WX    TMP DP  RH WIND       PRES   REMARKS
FORT PAYNE     FAIR      57  55  94 CALM      30.36S
SCOTTSBORO AP  FAIR      70  63  78 S12G17    30.34S
$$

TNZ076-096-097-231000-
SOUTHEASTERN MIDDLE TENNESSEE

CITY           SKY/WX    TMP DP  RH WIND       PRES   REMARKS
TULLAHOMA      MOCLDY    63  57  82 SE6       30.31S
WINCHESTER     CLEAR     64  59  82 SE10      30.32S
$$

...SURROUNDING SITES...

CITY           SKY/WX    TMP DP  RH WIND       PRES   REMARKS
ATLANTA        FAIR      62  60  93 SE5       30.38S
ANNISTON       FAIR      65  59  81 CALM      30.36R
BIRMINGHAM     MOCLDY    68  61  78 S6        30.36F
CHATTANOOGA    FAIR      62  58  86 SW7       30.35F
CORINTH        FAIR      63  63 100 S8        30.25F
DALTON         FAIR      55  55 100 CALM      30.38S
GADSDEN        FAIR      59  59 100 NW3       30.36S
GOLDEN TRNGL   FAIR      64  61  90 S8        30.29F
HALEYVILLE     FAIR      65  64  97 S9        30.33F
JACKSON TN     CLOUDY    58  58 100 CALM      30.24F
MEMPHIS        CLOUDY    54  53  97 E8        30.21F
NASHVILLE      FAIR      58  56  93 S3        30.26S
OXFORD MS      FAIR      64  61  88 S10       30.24F
ROME           FAIR      58  58 100 CALM      30.36S
SAVANNAH       CLOUDY    66  63  88 S13       30.25F
SELMER         MOCLDY    64  63  94 VRB6G17   30.24F
TUPELO         FAIR      64  60  87 SE5       30.26F
TUSCALOOSA     FAIR      67  64  90 CALM      30.31F
$$

...GULF COAST WEATHER...

CITY           SKY/WX    TMP DP  RH WIND       PRES   REMARKS
GULFPORT       CLOUDY    70  69  97 SE6       30.27F
PASCAGOULA     FOG       62  60  93 CALM      30.29S VSB 1/2
MOBILE         MOCLDY    67  65  93 SE5       30.31S
GULF SHORES    FOG       61  61 100 SW5       30.30F VSB 1/4
DESTIN         HAZE      68  63  84 E3        30.31  VSB 1
PANAMA CITY    FAIR      64  63  97 CALM      30.32S
APPALACHICOLA  FAIR      68  67  96 E6        30.31F
$$





USA.gov is the U.S. government's official web portal to all federal, state and local government web resources and services.